Немуй

Россия / Хабаровский край     55°40′16″N   136°19′57″E
темп.,
°C
ветер,
м/с
пор.,
м/с
влажн.,
%
обл.,
%
осадки,
мм/ч
давл.,
гПа
погр.,
м
9 марта, вт
вт901:00−14сз227081 0.0 100622
04:00−13ссз226990 0.0 100623
07:00−12ссз2270100 0.0 100726
10:00−9сз2373100 0.0 1008154
13:00−6ссз3567100 0.0 1008731
16:00−6сз476977 0.0 1009967
19:00−11сз33774 0.0 101224
22:00−13сз33813 0.0 101542
10 марта, ср
ср1001:00−14сз33802 0.0 101626
04:00−15сз33801 0.0 101624
07:00−16сз22780 0.0 101720
10:00−11ссз01710 0.0 1015108
13:00−8юв116525 0.0 1012449
16:00−7юв217225 0.0 1011517
19:00−12св018996 0.0 101121
22:00−12с128598 0.0 101221
11 марта, чт
чт1101:00−11з0195100 0.2 101225
04:00−11сз4781100 0.6 1014190
07:00−13зсз4680100 0.1 1017140
10:00−11сз5874100 0.1 10191022
13:00−9сз576550 0.0 10191255
16:00−9сз576537 0.0 10181334
19:00−13сз247482 0.0 102069
22:00−16сз337189 0.0 102127
12 марта, пт
пт1201:00−17сз33690 0.0 102127
04:00−18сз22690 0.0 102223
07:00−18сз23700 0.0 102225
10:00−12з22661 0.0 1020192
13:00−8юз12613 0.0 1016466
16:00−6ю12602 0.0 1012464
19:00−11сз117167 0.0 101021
22:00−11сз227283 0.0 101022
13 марта, сб
сб1301:00−12зсз227136 0.0 101022
04:00−11зсз227067 0.0 100922
07:00−8зсз2269100 0.0 100826
10:00−3сз3874100 0.0 1007672
13:00−3сз91563100 0.0 10081477
16:00−4сз7146466 0.1 10101430
19:00−10сз23720 0.0 101122
22:00−11сз22660 0.0 101121